Year,Month,Day,Hour,Minute,Value (Times are PST for temperature in C)
2017,10,25,00,00,7.80
2017,10,25,00,01,7.80
2017,10,25,00,02,7.80
2017,10,25,00,03,7.80
2017,10,25,00,04,7.70
2017,10,25,00,05,7.70
2017,10,25,00,06,7.70
2017,10,25,00,07,7.60
2017,10,25,00,08,7.60
2017,10,25,00,09,7.60
2017,10,25,00,10,7.60
2017,10,25,00,11,7.60
2017,10,25,00,12,7.60
2017,10,25,00,13,7.70
2017,10,25,00,14,7.70
2017,10,25,00,15,7.80
2017,10,25,00,16,7.80
2017,10,25,00,17,7.80
2017,10,25,00,18,7.80
2017,10,25,00,19,7.80
2017,10,25,00,20,7.70
2017,10,25,00,21,7.70
2017,10,25,00,22,7.70
2017,10,25,00,23,7.70
2017,10,25,00,24,7.70
2017,10,25,00,25,7.70
2017,10,25,00,26,7.70
2017,10,25,00,27,7.70
2017,10,25,00,28,7.70
2017,10,25,00,29,7.70
2017,10,25,00,30,7.70
2017,10,25,00,31,7.70
2017,10,25,00,32,7.70
2017,10,25,00,33,7.60
2017,10,25,00,34,7.60
2017,10,25,00,35,7.60
2017,10,25,00,36,7.60
2017,10,25,00,37,7.60
2017,10,25,00,38,7.60
2017,10,25,00,39,7.60
2017,10,25,00,40,7.60
2017,10,25,00,41,7.60
2017,10,25,00,42,7.60
2017,10,25,00,43,7.60
2017,10,25,00,44,7.50
2017,10,25,00,45,7.50
2017,10,25,00,46,7.50
2017,10,25,00,47,7.50
2017,10,25,00,48,7.50
2017,10,25,00,49,7.40
2017,10,25,00,50,7.40
2017,10,25,00,51,7.40
2017,10,25,00,52,7.40
2017,10,25,00,53,7.40
2017,10,25,00,54,7.40
2017,10,25,00,55,7.40
2017,10,25,00,56,7.50
2017,10,25,00,57,7.50
2017,10,25,00,58,7.50
2017,10,25,00,59,7.50
2017,10,25,01,00,7.50
2017,10,25,01,01,7.50
2017,10,25,01,02,7.50
2017,10,25,01,03,7.50
2017,10,25,01,04,7.50
2017,10,25,01,05,7.50
2017,10,25,01,06,7.40
2017,10,25,01,07,7.40
2017,10,25,01,08,7.40
2017,10,25,01,09,7.40
2017,10,25,01,10,7.30
2017,10,25,01,11,7.30
2017,10,25,01,12,7.30
2017,10,25,01,13,7.30
2017,10,25,01,14,7.30
2017,10,25,01,15,7.30
2017,10,25,01,16,7.30
2017,10,25,01,17,7.40
2017,10,25,01,18,7.40
2017,10,25,01,19,7.50
2017,10,25,01,20,7.60
2017,10,25,01,21,7.60
2017,10,25,01,22,7.80
2017,10,25,01,23,7.80
2017,10,25,01,24,7.80
2017,10,25,01,25,7.80
2017,10,25,01,26,7.80
2017,10,25,01,27,7.80
2017,10,25,01,28,7.80
2017,10,25,01,29,7.80
2017,10,25,01,30,7.80
2017,10,25,01,31,7.80
2017,10,25,01,32,7.80
2017,10,25,01,33,7.80
2017,10,25,01,34,7.80
2017,10,25,01,35,7.80
2017,10,25,01,36,7.90
2017,10,25,01,37,7.90
2017,10,25,01,38,7.80
2017,10,25,01,39,7.80
2017,10,25,01,40,7.70
2017,10,25,01,41,7.70
2017,10,25,01,42,7.60
2017,10,25,01,43,7.60
2017,10,25,01,44,7.60
2017,10,25,01,45,7.60
2017,10,25,01,46,7.70
2017,10,25,01,47,7.70
2017,10,25,01,48,7.70
2017,10,25,01,49,7.80
2017,10,25,01,50,8.00
2017,10,25,01,51,8.10
2017,10,25,01,52,8.30
2017,10,25,01,53,8.40
2017,10,25,01,54,8.50
2017,10,25,01,55,8.60
2017,10,25,01,56,8.70
2017,10,25,01,57,8.70
2017,10,25,01,58,8.70
2017,10,25,01,59,8.80
2017,10,25,02,00,8.80
2017,10,25,02,01,8.90
2017,10,25,02,02,8.90
2017,10,25,02,03,9.00
2017,10,25,02,04,9.00
2017,10,25,02,05,9.00
2017,10,25,02,06,9.00
2017,10,25,02,07,9.00
2017,10,25,02,08,9.00
2017,10,25,02,09,9.00
2017,10,25,02,10,9.10
2017,10,25,02,11,9.00
2017,10,25,02,12,9.00
2017,10,25,02,13,9.10
2017,10,25,02,14,9.10
2017,10,25,02,15,9.10
2017,10,25,02,16,9.10
2017,10,25,02,17,9.10
2017,10,25,02,18,9.00
2017,10,25,02,19,9.00
2017,10,25,02,20,9.00
2017,10,25,02,21,9.00
2017,10,25,02,22,9.00
2017,10,25,02,23,9.00
2017,10,25,02,24,8.90
2017,10,25,02,25,8.90
2017,10,25,02,26,8.90
2017,10,25,02,27,8.90
2017,10,25,02,28,8.90
2017,10,25,02,29,8.80
2017,10,25,02,30,8.80
2017,10,25,02,31,8.80
2017,10,25,02,32,8.80
2017,10,25,02,33,8.80
2017,10,25,02,34,8.80
2017,10,25,02,35,8.80
2017,10,25,02,36,8.80
2017,10,25,02,37,8.80
2017,10,25,02,38,8.80
2017,10,25,02,39,8.80
2017,10,25,02,40,8.80
2017,10,25,02,41,8.90
2017,10,25,02,42,8.90
2017,10,25,02,43,8.90
2017,10,25,02,44,8.90
2017,10,25,02,45,9.00
2017,10,25,02,46,9.00
2017,10,25,02,47,9.00
2017,10,25,02,48,9.10
2017,10,25,02,49,9.10
2017,10,25,02,50,9.20
2017,10,25,02,51,9.20
2017,10,25,02,52,9.20
2017,10,25,02,53,9.20
2017,10,25,02,54,9.20
2017,10,25,02,55,9.20
2017,10,25,02,56,9.20
2017,10,25,02,57,9.20
2017,10,25,02,58,9.20
2017,10,25,02,59,9.20
2017,10,25,03,00,9.20
2017,10,25,03,01,9.20
2017,10,25,03,02,9.20
2017,10,25,03,03,9.20
2017,10,25,03,04,9.20
2017,10,25,03,05,9.10
2017,10,25,03,06,9.10
2017,10,25,03,07,9.10
2017,10,25,03,08,9.10
2017,10,25,03,09,9.10
2017,10,25,03,10,9.10
2017,10,25,03,11,9.20
2017,10,25,03,12,9.20
2017,10,25,03,13,9.20
2017,10,25,03,14,9.20
2017,10,25,03,15,9.20
2017,10,25,03,16,9.20
2017,10,25,03,17,9.20
2017,10,25,03,18,9.20
2017,10,25,03,19,9.20
2017,10,25,03,20,9.20
2017,10,25,03,21,9.20
2017,10,25,03,22,9.20
2017,10,25,03,23,9.30
2017,10,25,03,24,9.30
2017,10,25,03,25,9.30
2017,10,25,03,26,9.30
2017,10,25,03,27,9.30
2017,10,25,03,28,9.30
2017,10,25,03,29,9.40
2017,10,25,03,30,9.40
2017,10,25,03,31,9.40
2017,10,25,03,32,9.40
2017,10,25,03,33,9.40
2017,10,25,03,34,9.40
2017,10,25,03,35,9.40
2017,10,25,03,36,9.50
2017,10,25,03,37,9.50
2017,10,25,03,38,9.50
2017,10,25,03,39,9.50
2017,10,25,03,40,9.50
2017,10,25,03,41,9.50
2017,10,25,03,42,9.50
2017,10,25,03,43,9.50
2017,10,25,03,44,9.50
2017,10,25,03,45,9.50
2017,10,25,03,46,9.50
2017,10,25,03,47,9.50
2017,10,25,03,48,9.60
2017,10,25,03,49,9.60
2017,10,25,03,50,9.60
2017,10,25,03,51,9.60
2017,10,25,03,52,9.60
2017,10,25,03,53,9.60
2017,10,25,03,54,9.60
2017,10,25,03,55,9.60
2017,10,25,03,56,9.60
2017,10,25,03,57,9.60
2017,10,25,03,58,9.60
2017,10,25,03,59,9.60
2017,10,25,04,00,9.60
2017,10,25,04,01,9.60
2017,10,25,04,02,9.60
2017,10,25,04,03,9.60
2017,10,25,04,04,9.60
2017,10,25,04,05,9.60
2017,10,25,04,06,9.50
2017,10,25,04,07,9.50
2017,10,25,04,08,9.50
2017,10,25,04,09,9.50
2017,10,25,04,10,9.50
2017,10,25,04,11,9.50
2017,10,25,04,12,9.50
2017,10,25,04,13,9.60
2017,10,25,04,14,9.60
2017,10,25,04,15,9.60
2017,10,25,04,16,9.60
2017,10,25,04,17,9.70
2017,10,25,04,18,9.70
2017,10,25,04,19,9.70
2017,10,25,04,20,9.70
2017,10,25,04,21,9.70
2017,10,25,04,22,9.70
2017,10,25,04,23,9.70
2017,10,25,04,24,9.70
2017,10,25,04,25,9.80
2017,10,25,04,26,9.80
2017,10,25,04,27,9.80
2017,10,25,04,28,9.90
2017,10,25,04,29,9.90
2017,10,25,04,30,9.90
2017,10,25,04,31,9.90
2017,10,25,04,32,9.90
2017,10,25,04,33,9.90
2017,10,25,04,34,9.90
2017,10,25,04,35,9.90
2017,10,25,04,36,9.90
2017,10,25,04,37,9.90
2017,10,25,04,38,9.90
2017,10,25,04,39,9.90
2017,10,25,04,40,9.90
2017,10,25,04,41,9.90
2017,10,25,04,42,9.90
2017,10,25,04,43,9.90
2017,10,25,04,44,9.90
2017,10,25,04,45,9.90
2017,10,25,04,46,10.00
2017,10,25,04,47,10.10
2017,10,25,04,48,10.10
2017,10,25,04,49,10.10
2017,10,25,04,50,10.10
2017,10,25,04,51,10.10
2017,10,25,04,52,10.10
2017,10,25,04,53,10.10
2017,10,25,04,54,10.10
2017,10,25,04,55,10.10
2017,10,25,04,56,10.10
2017,10,25,04,57,10.20
2017,10,25,04,58,10.20
2017,10,25,04,59,10.20
2017,10,25,05,00,10.20
2017,10,25,05,01,10.20
2017,10,25,05,02,10.20
2017,10,25,05,03,10.30
2017,10,25,05,04,10.30
2017,10,25,05,05,10.30
2017,10,25,05,06,10.30
2017,10,25,05,07,10.40
2017,10,25,05,08,10.40
2017,10,25,05,09,10.40
2017,10,25,05,10,10.40
2017,10,25,05,11,10.40
2017,10,25,05,12,10.40
2017,10,25,05,13,10.40
2017,10,25,05,14,10.40
2017,10,25,05,15,10.50
2017,10,25,05,16,10.60
2017,10,25,05,17,10.60
2017,10,25,05,18,10.60
2017,10,25,05,19,10.60
2017,10,25,05,20,10.60
2017,10,25,05,21,10.60
2017,10,25,05,22,10.60
2017,10,25,05,23,10.40
2017,10,25,05,24,10.40
2017,10,25,05,25,10.40
2017,10,25,05,26,10.40
2017,10,25,05,27,10.40
2017,10,25,05,28,10.40
2017,10,25,05,29,10.40
2017,10,25,05,30,10.30
2017,10,25,05,31,10.30
2017,10,25,05,32,10.30
2017,10,25,05,33,10.30
2017,10,25,05,34,10.30
2017,10,25,05,35,10.30
2017,10,25,05,36,10.20
2017,10,25,05,37,10.20
2017,10,25,05,38,10.20
2017,10,25,05,39,10.20
2017,10,25,05,40,10.20
2017,10,25,05,41,10.20
2017,10,25,05,42,10.20
2017,10,25,05,43,10.30
2017,10,25,05,44,10.30
2017,10,25,05,45,10.30
2017,10,25,05,46,10.40
2017,10,25,05,47,10.40
2017,10,25,05,48,10.40
2017,10,25,05,49,10.40
2017,10,25,05,50,10.40
2017,10,25,05,51,10.50
2017,10,25,05,52,10.60
2017,10,25,05,53,10.60
2017,10,25,05,54,10.60
2017,10,25,05,55,10.60
2017,10,25,05,56,10.70
2017,10,25,05,57,10.70
2017,10,25,05,58,10.80
2017,10,25,05,59,10.80
2017,10,25,06,00,10.90
2017,10,25,06,01,10.90
2017,10,25,06,02,10.90
2017,10,25,06,03,10.90
2017,10,25,06,04,10.90
2017,10,25,06,05,11.00
2017,10,25,06,06,11.10
2017,10,25,06,07,11.10
2017,10,25,06,08,11.10
2017,10,25,06,09,11.10
2017,10,25,06,10,11.20
2017,10,25,06,11,11.20
2017,10,25,06,12,11.30
2017,10,25,06,13,11.30
2017,10,25,06,14,11.30
2017,10,25,06,15,11.40
2017,10,25,06,16,11.40
2017,10,25,06,17,11.40
2017,10,25,06,18,11.40
2017,10,25,06,19,11.40
2017,10,25,06,20,11.40
2017,10,25,06,21,11.40
2017,10,25,06,22,11.40
2017,10,25,06,23,11.40
2017,10,25,06,24,11.40
2017,10,25,06,25,11.40
2017,10,25,06,26,11.50
2017,10,25,06,27,11.60
2017,10,25,06,28,11.90
2017,10,25,06,29,12.30
2017,10,25,06,30,12.70
2017,10,25,06,31,13.00
2017,10,25,06,32,13.20
2017,10,25,06,33,13.40
2017,10,25,06,34,13.60
2017,10,25,06,35,13.70
2017,10,25,06,36,13.90
2017,10,25,06,37,14.00
2017,10,25,06,38,14.10
2017,10,25,06,39,14.10
2017,10,25,06,40,14.20
2017,10,25,06,41,14.20
2017,10,25,06,42,14.30
2017,10,25,06,43,14.30
2017,10,25,06,44,14.30
2017,10,25,06,45,14.30
2017,10,25,06,46,14.40
2017,10,25,06,47,14.40
2017,10,25,06,48,14.40
2017,10,25,06,49,14.40
2017,10,25,06,50,14.50
2017,10,25,06,51,14.50
2017,10,25,06,52,14.50
2017,10,25,06,53,14.50
2017,10,25,06,54,14.50
2017,10,25,06,55,14.50
2017,10,25,06,56,14.40
2017,10,25,06,57,14.40
2017,10,25,06,58,14.30
2017,10,25,06,59,14.30
2017,10,25,07,00,14.20
2017,10,25,07,01,14.20
2017,10,25,07,02,14.20
2017,10,25,07,03,14.20
2017,10,25,07,04,14.20
2017,10,25,07,05,14.10
2017,10,25,07,06,14.10
2017,10,25,07,07,14.10
2017,10,25,07,08,14.20
2017,10,25,07,09,14.20
2017,10,25,07,10,14.20
2017,10,25,07,11,14.20
2017,10,25,07,12,14.20
2017,10,25,07,13,14.20
2017,10,25,07,14,14.20
2017,10,25,07,15,14.20
2017,10,25,07,16,14.10
2017,10,25,07,17,14.00
2017,10,25,07,18,13.80
2017,10,25,07,19,13.50
2017,10,25,07,20,13.30
2017,10,25,07,21,13.10
2017,10,25,07,22,12.90
2017,10,25,07,23,12.70
2017,10,25,07,24,12.50
2017,10,25,07,25,12.40
2017,10,25,07,26,12.20
2017,10,25,07,27,12.10
2017,10,25,07,28,11.90
2017,10,25,07,29,11.80
2017,10,25,07,30,11.70
2017,10,25,07,31,11.60
2017,10,25,07,32,11.60
2017,10,25,07,33,11.50
2017,10,25,07,34,11.40
2017,10,25,07,35,11.40
2017,10,25,07,36,11.40
2017,10,25,07,37,11.30
2017,10,25,07,38,11.30
2017,10,25,07,39,11.30
2017,10,25,07,40,11.20
2017,10,25,07,41,11.20
2017,10,25,07,42,11.20
2017,10,25,07,43,11.20
2017,10,25,07,44,11.20
2017,10,25,07,45,11.30
2017,10,25,07,46,11.30
2017,10,25,07,47,11.30
2017,10,25,07,48,11.30
2017,10,25,07,49,11.30
2017,10,25,07,50,11.30
2017,10,25,07,51,11.30
2017,10,25,07,52,11.30
2017,10,25,07,53,11.30
2017,10,25,07,54,11.40
2017,10,25,07,55,11.40
2017,10,25,07,56,11.40
2017,10,25,07,57,11.40
2017,10,25,07,58,11.40
2017,10,25,07,59,11.40
2017,10,25,08,00,11.40
2017,10,25,08,01,11.40
2017,10,25,08,02,11.40
2017,10,25,08,03,11.40
2017,10,25,08,04,11.50
2017,10,25,08,05,11.50
2017,10,25,08,06,11.40
2017,10,25,08,07,11.50
2017,10,25,08,08,11.50
2017,10,25,08,09,11.60
2017,10,25,08,10,11.60
2017,10,25,08,11,11.60
2017,10,25,08,12,11.60
2017,10,25,08,13,11.60
2017,10,25,08,14,11.60
2017,10,25,08,15,11.70
2017,10,25,08,16,11.80
2017,10,25,08,17,11.80
2017,10,25,08,18,12.00
2017,10,25,08,19,12.10
2017,10,25,08,20,12.40
2017,10,25,08,21,12.60
2017,10,25,08,22,12.90
2017,10,25,08,23,13.00
2017,10,25,08,24,13.30
2017,10,25,08,25,13.50
2017,10,25,08,26,13.60
2017,10,25,08,27,13.70
2017,10,25,08,28,13.80
2017,10,25,08,29,13.80
2017,10,25,08,30,13.90
2017,10,25,08,31,14.00
2017,10,25,08,32,14.00
2017,10,25,08,33,14.10
2017,10,25,08,34,14.10
2017,10,25,08,35,14.10
2017,10,25,08,36,14.10
2017,10,25,08,37,14.10
2017,10,25,08,38,14.10
2017,10,25,08,39,14.10
2017,10,25,08,40,14.10
2017,10,25,08,41,14.10
2017,10,25,08,42,14.10
2017,10,25,08,43,14.10
2017,10,25,08,44,14.10
2017,10,25,08,45,14.10
2017,10,25,08,46,14.10
2017,10,25,08,47,14.10
2017,10,25,08,48,14.10
2017,10,25,08,49,14.10
2017,10,25,08,50,14.10
2017,10,25,08,51,14.10
2017,10,25,08,52,14.00
2017,10,25,08,53,14.00
2017,10,25,08,54,14.00
2017,10,25,08,55,14.00
2017,10,25,08,56,14.00
2017,10,25,08,57,14.00
2017,10,25,08,58,14.00
2017,10,25,08,59,14.00
2017,10,25,09,00,14.00
2017,10,25,09,01,14.00
2017,10,25,09,02,14.00
2017,10,25,09,03,14.00
2017,10,25,09,04,14.00
2017,10,25,09,05,14.00
2017,10,25,09,06,14.00
2017,10,25,09,07,14.00
2017,10,25,09,08,14.00
2017,10,25,09,09,14.00
2017,10,25,09,10,14.00
2017,10,25,09,11,14.00
2017,10,25,09,12,14.00
2017,10,25,09,13,14.00
2017,10,25,09,14,14.00
2017,10,25,09,15,14.00
2017,10,25,09,16,14.00
2017,10,25,09,17,14.00
2017,10,25,09,18,14.00
2017,10,25,09,19,13.90
2017,10,25,09,20,13.90
2017,10,25,09,21,13.90
2017,10,25,09,22,13.90
2017,10,25,09,23,13.90
2017,10,25,09,24,13.90
2017,10,25,09,25,13.90
2017,10,25,09,26,13.90
2017,10,25,09,27,13.90
2017,10,25,09,28,13.90
2017,10,25,09,29,13.90
2017,10,25,09,30,13.90
2017,10,25,09,31,13.90
2017,10,25,09,32,13.90
2017,10,25,09,33,13.90
2017,10,25,09,34,13.90
2017,10,25,09,35,13.90
2017,10,25,09,36,13.90
2017,10,25,09,37,13.90
2017,10,25,09,38,13.90
2017,10,25,09,39,13.90
2017,10,25,09,40,13.90
2017,10,25,09,41,13.90
2017,10,25,09,42,13.90
2017,10,25,09,43,13.90
2017,10,25,09,44,13.90
2017,10,25,09,45,13.90
2017,10,25,09,46,13.90
2017,10,25,09,47,13.90
2017,10,25,09,48,13.90
2017,10,25,09,49,13.90
2017,10,25,09,50,13.90
2017,10,25,09,51,13.90
2017,10,25,09,52,13.90
2017,10,25,09,53,13.80
2017,10,25,09,54,13.80
2017,10,25,09,55,13.80
2017,10,25,09,56,13.80
2017,10,25,09,57,13.80
2017,10,25,09,58,13.80
2017,10,25,09,59,13.80
2017,10,25,10,00,13.80
2017,10,25,10,01,13.80
2017,10,25,10,02,13.80
2017,10,25,10,03,13.80
2017,10,25,10,04,13.80
2017,10,25,10,05,13.80
2017,10,25,10,06,13.80
2017,10,25,10,07,13.70
2017,10,25,10,08,13.70
2017,10,25,10,09,13.70
2017,10,25,10,10,13.60
2017,10,25,10,11,13.60
2017,10,25,10,12,13.50
2017,10,25,10,13,13.50
2017,10,25,10,14,13.50
2017,10,25,10,15,13.40
2017,10,25,10,16,13.40
2017,10,25,10,17,13.40
2017,10,25,10,18,13.30
2017,10,25,10,19,13.30
2017,10,25,10,20,13.30
2017,10,25,10,21,13.30
2017,10,25,10,22,13.30
2017,10,25,10,23,13.30
2017,10,25,10,24,13.30
2017,10,25,10,25,13.30
2017,10,25,10,26,13.30
2017,10,25,10,27,13.30
2017,10,25,10,28,13.30
2017,10,25,10,29,13.40
2017,10,25,10,30,13.40
2017,10,25,10,31,13.40
2017,10,25,10,32,13.40
2017,10,25,10,33,13.40
2017,10,25,10,34,13.40
2017,10,25,10,35,13.40
2017,10,25,10,36,13.40
2017,10,25,10,37,13.40
2017,10,25,10,38,13.50
2017,10,25,10,39,13.50
2017,10,25,10,40,13.50
2017,10,25,10,41,13.40
2017,10,25,10,42,13.50
2017,10,25,10,43,13.50
2017,10,25,10,44,13.50
2017,10,25,10,45,13.50
2017,10,25,10,46,13.50
2017,10,25,10,47,13.50
2017,10,25,10,48,13.20
2017,10,25,10,49,12.90
2017,10,25,10,50,12.60
2017,10,25,10,51,12.40
2017,10,25,10,52,12.20
2017,10,25,10,53,12.00
2017,10,25,10,54,11.90
2017,10,25,10,55,11.80
2017,10,25,10,56,11.70
2017,10,25,10,57,11.70
2017,10,25,10,58,11.60
2017,10,25,10,59,11.60
2017,10,25,11,00,11.60
2017,10,25,11,01,11.70
2017,10,25,11,02,11.70
2017,10,25,11,03,11.70
2017,10,25,11,04,11.80
2017,10,25,11,05,11.80
2017,10,25,11,06,11.80
2017,10,25,11,07,11.80
2017,10,25,11,08,11.90
2017,10,25,11,09,12.00
2017,10,25,11,10,12.00
2017,10,25,11,11,12.10
2017,10,25,11,12,12.10
2017,10,25,11,13,12.10
2017,10,25,11,14,12.20
2017,10,25,11,15,12.30
2017,10,25,11,16,12.30
2017,10,25,11,17,12.30
2017,10,25,11,18,12.40
2017,10,25,11,19,12.50
2017,10,25,11,20,12.50
2017,10,25,11,21,12.60
2017,10,25,11,22,12.60
2017,10,25,11,23,12.70
2017,10,25,11,24,12.80
2017,10,25,11,25,12.80
2017,10,25,11,26,12.80
2017,10,25,11,27,12.90
2017,10,25,11,28,12.90
2017,10,25,11,29,13.00
2017,10,25,11,30,13.00
2017,10,25,11,31,13.10
2017,10,25,11,32,13.20
2017,10,25,11,33,13.20
2017,10,25,11,34,13.30
2017,10,25,11,35,13.30
2017,10,25,11,36,13.30
2017,10,25,11,37,13.40
2017,10,25,11,38,13.40
2017,10,25,11,39,13.50
2017,10,25,11,40,13.50
2017,10,25,11,41,13.60
2017,10,25,11,42,13.60
2017,10,25,11,43,13.70
2017,10,25,11,44,13.70
2017,10,25,11,45,13.70
2017,10,25,11,46,13.80
2017,10,25,11,47,13.90
2017,10,25,11,48,13.90
2017,10,25,11,49,13.90
2017,10,25,11,50,14.00
2017,10,25,11,51,14.00
2017,10,25,11,52,14.10
2017,10,25,11,53,14.10
2017,10,25,11,54,14.20
2017,10,25,11,55,14.20
2017,10,25,11,56,14.20
2017,10,25,11,57,14.30
2017,10,25,11,58,14.30
2017,10,25,11,59,14.40
2017,10,25,12,00,14.50
2017,10,25,12,01,14.50
2017,10,25,12,02,14.50
2017,10,25,12,03,14.60
2017,10,25,12,04,14.60
2017,10,25,12,05,14.60
2017,10,25,12,06,14.60
2017,10,25,12,07,14.60
2017,10,25,12,08,14.60
2017,10,25,12,09,14.70
2017,10,25,12,10,14.70
2017,10,25,12,11,14.70
2017,10,25,12,12,14.80
2017,10,25,12,13,14.80
2017,10,25,12,14,14.80
2017,10,25,12,15,14.80
2017,10,25,12,16,14.80
2017,10,25,12,17,14.70
2017,10,25,12,18,14.70
2017,10,25,12,19,14.70
2017,10,25,12,20,14.70
2017,10,25,12,21,14.70
2017,10,25,12,22,14.70
2017,10,25,12,23,14.70
2017,10,25,12,24,14.80
2017,10,25,12,25,14.80
2017,10,25,12,26,14.80
2017,10,25,12,27,14.80
2017,10,25,12,28,14.80
2017,10,25,12,29,14.80
2017,10,25,12,30,14.80
2017,10,25,12,31,14.80
2017,10,25,12,32,14.80
2017,10,25,12,33,14.80
2017,10,25,12,34,14.80
2017,10,25,12,35,14.70
2017,10,25,12,36,14.70
2017,10,25,12,37,14.70
2017,10,25,12,38,14.70
2017,10,25,12,39,14.70
2017,10,25,12,40,14.70
2017,10,25,12,41,14.70
2017,10,25,12,42,14.70
2017,10,25,12,43,14.60
2017,10,25,12,44,14.60
2017,10,25,12,45,14.60
2017,10,25,12,46,14.60
2017,10,25,12,47,14.60
2017,10,25,12,48,14.60
2017,10,25,12,49,14.60
2017,10,25,12,50,14.60
2017,10,25,12,51,14.60
2017,10,25,12,52,14.70
2017,10,25,12,53,14.70
2017,10,25,12,54,14.70
2017,10,25,12,55,14.70
2017,10,25,12,56,14.70
2017,10,25,12,57,14.80
2017,10,25,12,58,14.80
2017,10,25,12,59,14.80
2017,10,25,13,00,14.90
2017,10,25,13,01,14.90
2017,10,25,13,02,15.00
2017,10,25,13,03,15.00
2017,10,25,13,04,15.00
2017,10,25,13,05,15.10
2017,10,25,13,06,15.10
2017,10,25,13,07,15.10
2017,10,25,13,08,15.20
2017,10,25,13,09,15.10
2017,10,25,13,10,15.10
2017,10,25,13,11,15.00
2017,10,25,13,12,14.90
2017,10,25,13,13,14.80
2017,10,25,13,14,14.60
2017,10,25,13,15,14.40
2017,10,25,13,16,14.20
2017,10,25,13,17,14.00
2017,10,25,13,18,13.80
2017,10,25,13,19,13.70
2017,10,25,13,20,13.60
2017,10,25,13,21,13.50
2017,10,25,13,22,13.40
2017,10,25,13,23,13.30
2017,10,25,13,24,13.10
2017,10,25,13,25,13.00
2017,10,25,13,26,12.90
2017,10,25,13,27,12.80
2017,10,25,13,28,12.70
2017,10,25,13,29,12.60
2017,10,25,13,30,12.60
2017,10,25,13,31,12.50
2017,10,25,13,32,12.50
2017,10,25,13,33,12.40
2017,10,25,13,34,12.30
2017,10,25,13,35,12.30
2017,10,25,13,36,12.20
2017,10,25,13,37,12.10
2017,10,25,13,38,12.00
2017,10,25,13,39,12.00
2017,10,25,13,40,11.90
2017,10,25,13,41,11.80
2017,10,25,13,42,11.80
2017,10,25,13,43,11.80
2017,10,25,13,44,11.70
2017,10,25,13,45,11.70
2017,10,25,13,46,11.70
2017,10,25,13,47,11.70
2017,10,25,13,48,11.70
2017,10,25,13,49,11.70
2017,10,25,13,50,11.70
2017,10,25,13,51,11.70
2017,10,25,13,52,11.70
2017,10,25,13,53,11.80
2017,10,25,13,54,11.80
2017,10,25,13,55,11.80
2017,10,25,13,56,11.80
2017,10,25,13,57,11.80
2017,10,25,13,58,11.80
2017,10,25,13,59,11.80
2017,10,25,14,00,11.80
2017,10,25,14,01,11.80
2017,10,25,14,02,11.80
2017,10,25,14,03,11.80
2017,10,25,14,04,11.80
2017,10,25,14,05,11.80
2017,10,25,14,06,11.80
2017,10,25,14,07,11.80
2017,10,25,14,08,11.80
2017,10,25,14,09,11.90
2017,10,25,14,10,11.90
2017,10,25,14,11,11.90
2017,10,25,14,12,11.90
2017,10,25,14,13,11.90
2017,10,25,14,14,12.00
2017,10,25,14,15,12.00
2017,10,25,14,16,12.00
2017,10,25,14,17,12.00
2017,10,25,14,18,12.00
2017,10,25,14,19,12.00
2017,10,25,14,20,12.00
2017,10,25,14,21,12.00
2017,10,25,14,22,12.00
2017,10,25,14,23,12.00
2017,10,25,14,24,12.00
2017,10,25,14,25,12.00
2017,10,25,14,26,12.00
2017,10,25,14,27,12.00
2017,10,25,14,28,12.00
2017,10,25,14,29,12.10
2017,10,25,14,30,12.10
2017,10,25,14,31,12.10
2017,10,25,14,32,12.20
2017,10,25,14,33,12.20
2017,10,25,14,34,12.30
2017,10,25,14,35,12.20
2017,10,25,14,36,12.20
2017,10,25,14,37,12.10
2017,10,25,14,38,12.10
2017,10,25,14,39,12.00
2017,10,25,14,40,11.90
2017,10,25,14,41,11.90
2017,10,25,14,42,11.80
2017,10,25,14,43,11.80
2017,10,25,14,44,11.80
2017,10,25,14,45,11.80
2017,10,25,14,46,11.70
2017,10,25,14,47,11.70
2017,10,25,14,48,11.70
2017,10,25,14,49,11.70
2017,10,25,14,50,11.70
2017,10,25,14,51,11.70
2017,10,25,14,52,11.70
2017,10,25,14,53,11.70
2017,10,25,14,54,11.60
2017,10,25,14,55,11.60
2017,10,25,14,56,11.60
2017,10,25,14,57,11.60
2017,10,25,14,58,11.60
2017,10,25,14,59,11.60
2017,10,25,15,00,11.60
2017,10,25,15,01,11.70
2017,10,25,15,02,11.70
2017,10,25,15,03,11.80
2017,10,25,15,04,11.80
2017,10,25,15,05,11.80
2017,10,25,15,06,11.80
2017,10,25,15,07,11.80
2017,10,25,15,08,11.80
2017,10,25,15,09,11.80
2017,10,25,15,10,11.80
2017,10,25,15,11,11.80
2017,10,25,15,12,11.80
2017,10,25,15,13,11.80
2017,10,25,15,14,11.80
2017,10,25,15,15,11.80
2017,10,25,15,16,11.90
2017,10,25,15,17,11.90
2017,10,25,15,18,11.90
2017,10,25,15,19,11.90
2017,10,25,15,20,11.90
2017,10,25,15,21,11.90
2017,10,25,15,22,11.90
2017,10,25,15,23,11.90
2017,10,25,15,24,11.90
2017,10,25,15,25,11.90
2017,10,25,15,26,11.90
2017,10,25,15,27,11.90
2017,10,25,15,28,11.80
2017,10,25,15,29,11.80
2017,10,25,15,30,11.80
2017,10,25,15,31,11.80
2017,10,25,15,32,11.80
2017,10,25,15,33,11.90
2017,10,25,15,34,11.90
2017,10,25,15,35,11.90
2017,10,25,15,36,11.90
2017,10,25,15,37,11.90
2017,10,25,15,38,11.90
2017,10,25,15,39,11.90
2017,10,25,15,40,11.90
2017,10,25,15,41,11.80
2017,10,25,15,42,11.80
2017,10,25,15,43,11.70
2017,10,25,15,44,11.70
2017,10,25,15,45,11.60
2017,10,25,15,46,11.60
2017,10,25,15,47,11.60
2017,10,25,15,48,11.60
2017,10,25,15,49,11.60
2017,10,25,15,50,11.60
2017,10,25,15,51,11.60
2017,10,25,15,52,11.60
2017,10,25,15,53,11.60
2017,10,25,15,54,11.60
2017,10,25,15,55,11.60
2017,10,25,15,56,11.60
2017,10,25,15,57,11.60
2017,10,25,15,58,11.60
2017,10,25,15,59,11.40
2017,10,25,16,00,11.40
2017,10,25,16,01,11.40
2017,10,25,16,02,11.40
2017,10,25,16,03,11.40
2017,10,25,16,04,11.40
2017,10,25,16,05,11.40
2017,10,25,16,06,11.40
2017,10,25,16,07,11.40
2017,10,25,16,08,11.40
2017,10,25,16,09,11.40
2017,10,25,16,10,11.40
2017,10,25,16,11,11.40
2017,10,25,16,12,11.40
2017,10,25,16,13,11.40
2017,10,25,16,14,11.40
2017,10,25,16,15,11.40
2017,10,25,16,16,11.40
2017,10,25,16,17,11.30
2017,10,25,16,18,11.30
2017,10,25,16,19,11.30
2017,10,25,16,20,11.20
2017,10,25,16,21,11.20
2017,10,25,16,22,11.20
2017,10,25,16,23,11.20
2017,10,25,16,24,11.20
2017,10,25,16,25,11.20
2017,10,25,16,26,11.10
2017,10,25,16,27,11.10
2017,10,25,16,28,11.10
2017,10,25,16,29,11.10
2017,10,25,16,30,11.10
2017,10,25,16,31,11.10
2017,10,25,16,32,11.10
2017,10,25,16,33,11.10
2017,10,25,16,34,11.10
2017,10,25,16,35,11.10
2017,10,25,16,36,11.10
2017,10,25,16,37,11.10
2017,10,25,16,38,11.00
2017,10,25,16,39,11.00
2017,10,25,16,40,10.90
2017,10,25,16,41,10.90
2017,10,25,16,42,10.90
2017,10,25,16,43,10.90
2017,10,25,16,44,11.00
2017,10,25,16,45,11.10
2017,10,25,16,46,11.10
2017,10,25,16,47,11.10
2017,10,25,16,48,11.10
2017,10,25,16,49,11.10
2017,10,25,16,50,11.10
2017,10,25,16,51,11.20
2017,10,25,16,52,11.20
2017,10,25,16,53,11.20
2017,10,25,16,54,11.20
2017,10,25,16,55,11.20
2017,10,25,16,56,11.20
2017,10,25,16,57,11.20
2017,10,25,16,58,11.10
2017,10,25,16,59,11.10
2017,10,25,17,00,11.10
2017,10,25,17,01,11.10
2017,10,25,17,02,11.10
2017,10,25,17,03,11.00
2017,10,25,17,04,10.90
2017,10,25,17,05,10.90
2017,10,25,17,06,10.90
2017,10,25,17,07,10.90
2017,10,25,17,08,10.90
2017,10,25,17,09,10.90
2017,10,25,17,10,10.90
2017,10,25,17,11,10.90
2017,10,25,17,12,10.90
2017,10,25,17,13,10.80
2017,10,25,17,14,10.80
2017,10,25,17,15,10.80
2017,10,25,17,16,10.80
2017,10,25,17,17,10.80
2017,10,25,17,18,10.80
2017,10,25,17,19,10.80
2017,10,25,17,20,10.70
2017,10,25,17,21,10.70
2017,10,25,17,22,10.70
2017,10,25,17,23,10.70
2017,10,25,17,24,10.70
2017,10,25,17,25,10.70
2017,10,25,17,26,10.80
2017,10,25,17,27,10.80
2017,10,25,17,28,10.80
2017,10,25,17,29,10.80
2017,10,25,17,30,10.80
2017,10,25,17,31,10.80